Regional Weather Roundup
Issued by NWS

Home | Current Version | Previous Version | Text Only | Print | Product List | Glossary On
Versions: 1 2 3 4 5 6 7 8 9 10 11 12 13 14 15 16 17 18 19 20 21 22 23 24 25 26 27 28 29 30 31 32 33 34 35 36 37 38 39 40 41 42 43 44 45 46 47 48 49 50
000
ASUS43 KLSX 290759
RWRMO

WEATHER SUMMARY FOR MISSOURI
NATIONAL WEATHER SERVICE SPRINGFIELD MO
300 AM CDT MON MAY 29 2017

NOTE: "FAIR" INDICATES FEW OR NO CLOUDS BELOW 12,000 FEET WITH NO
       SIGNIFICANT WEATHER AND/OR OBSTRUCTIONS TO VISIBILITY.
       CURRENT SKY AND/OR WEATHER CONDITIONS ARE NOT AVAILABLE FOR
       CHILLICOTHE AND FARMINGTON.

MOZ001>031-035>038-043-044-053-054-290900-
...NORTHERN AND WESTERN MISSOURI...

CITY           SKY/WX    TMP DP  RH WIND       PRES   REMARKS
KANSAS CTY INT CLEAR     55  51  86 S7        29.95S
KANSAS C DTWN  PTCLDY    62  54  74 SW5       29.94F
LEE`S SUMMIT   PTCLDY    61  52  72 SW5       29.96F
ST JOSEPH      CLEAR     59  54  83 S7        29.94R
CHILLICOTHE      N/A     56  49  77 CALM      29.93S
KIRKSVILLE     PTCLDY    54  47  77 S5        29.91S

$$
MOZ066>068-077>081-088>096-101>105-290900-
...SOUTHWEST MISSOURI...

CITY           SKY/WX    TMP DP  RH WIND       PRES   REMARKS
SPRINGFIELD    CLEAR     61  56  83 SW8       30.00R
JOPLIN         CLOUDY    60  56  86 SW6       30.00S

$$
MOZ032>034-039>042-045>050-055>058-069>072-290900-
...CENTRAL MISSOURI...

CITY           SKY/WX    TMP DP  RH WIND       PRES   REMARKS
COLUMBIA       CLEAR     61  54  77 W8        29.93S
JEFFERSON CITY PTCLDY    62  56  80 CALM      29.93R
ROLLA          CLEAR     57  55  93 SW8       29.94S
SEDALIA        PTCLDY    64  54  69 W6        29.96S
WARRENSBURG    CLEAR     55  52  88 CALM      29.95F
OSAGE BEACH    CLEAR     56  55  97 CALM      29.96S

$$
MOZ051-052-059>065-290900-
...EAST CENTRAL MISSOURI...

CITY           SKY/WX    TMP DP  RH WIND       PRES   REMARKS
ST LOUIS INTL  PTCLDY    67  56  67 W9        29.91R
SPIRIT OF STL  PTCLDY    62  57  83 W7        29.90S
ST CHARLES     PTCLDY    59  58  96 CALM      29.89S

$$
MOZ072>076-082>087-097>100-106>115-290900-
...SOUTH CENTRAL AND SOUTHEAST MISSOURI...

CITY           SKY/WX    TMP DP  RH WIND       PRES   REMARKS
CAPE GIRARDEAU CLOUDY    61  58  90 W3        29.94R
FARMINGTON     CLOUDY    56  55  97 CALM      29.95S
POPLAR BLUFF   CLOUDY    62  61  96 CALM      29.95S
WEST PLAINS    CLOUDY    59  55  87 W5        30.00S

$$




USA.gov is the U.S. government's official web portal to all federal, state and local government web resources and services.